User: anonymous   Login
Location: Unspecified
(0.0000°N, 0.0000°E)
Time: 06:53:31
(UTC+00:00)
Language:

STARLINK-6373 - Orbit

View from above orbital plane
View from above orbital plane
View from above satellite
View from above satellite

Ground track
Ground track

The orbit is defined by the following mean orbital elements,

1 57345U          26145.55922095 +.00000000 +00000-0 +31323-4 0 00008
2 57345  43.0015 181.6066 0001944 282.6953  77.3682 15.27576033    02
Epoch (UTC): 25 May 2026 13:25:16
Eccentricity: 0.0001944
inclination: 43.0015°
perigee height: 482 km
apogee height: 484 km
right ascension of ascending node: 181.6066°
argument of perigee: 282.6953°
revolutions per day: 15.27576033
mean anomaly at epoch: 77.3682°

The dashed part of the orbit path shows where the satellite is in the earth's shadow,  

DLR